Other Public Products
Issued by NWS Grand Forks, ND

Home | Current Version | Previous Version | Text Only | Print | Product List | Glossary Off
Versions: 1 2 3 4 5 6 7 8 9 10 11 12 13 14 15 16 17 18 19 20 21 22 23 24 25 26 27 28 29 30 31 32 33 34 35 36 37 38 39 40 41 42 43 44 45 46 47 48 49 50

000
FPUS83 KFGF 231210
OPUFGF
PRAIRIE TO PINES WEATHER ROUNDUP
NATIONAL WEATHER SERVICE EASTERN NORTH DAKOTA/GRAND FORKS ND
600 AM CST MON JAN 23 2017

 **SATELLITE DATA USED TO AUGMENT SKY COVER AT AUTOMATED STATIONS**
 *****  WEATHER ACROSS EASTERN NORTH DAKOTA  *****

CITY           SKY/WX    TMP DP  RH WIND       PRES   REMARKS
GRAND FORKS    CLOUDY    33  27  78 W7        29.77F
6HR MIN TEMP:  32; 6HR MAX TEMP:  33;

GRAND FORKS AF CLOUDY    31  26  81 W10       29.77S WCI  23
GRAND CITY NWS NOT AVBL
BUXTON         NOT AVBL
DEVILS LAKE    CLOUDY    28  25  88 W8        29.76F WCI  20
6HR MIN TEMP:  28; 6HR MAX TEMP:  30;

FARGO          CLOUDY    35  28  75 W7        29.81S
6HR MIN TEMP:  34; 6HR MAX TEMP:  36;

WAHPETON ARPT  CLOUDY    32  28  86 W6        29.83S
$$

 *****  WEATHER ACROSS CENTRAL AND WESTERN NORTH DAKOTA  *****

CITY           SKY/WX    TMP DP  RH WIND       PRES   REMARKS
JAMESTOWN      CLOUDY    30  25  81 NW8       29.77S WCI  22
6HR MIN TEMP:  30; 6HR MAX TEMP:  32;

BISMARCK       CLOUDY    30  23  75 NW3       29.79F
6HR MIN TEMP:  29; 6HR MAX TEMP:  32;

MINOT          CLOUDY    27  22  81 W5        29.75F WCI  22
6HR MIN TEMP:  26; 6HR MAX TEMP:  30;

MINOT AFB      CLOUDY    26  22  83 NW8       29.74F WCI  17
6HR MIN TEMP:  26; 6HR MAX TEMP:  28;

GARRISON         N/A     27  22  81 W5        29.75F WCI  22
6HR MIN TEMP:  26; 6HR MAX TEMP:  28;

WILLISTON      CLOUDY    27  24  89 NW3       29.77S
6HR MIN TEMP:  26; 6HR MAX TEMP:  28;

DICKINSON      CLOUDY    23  19  85 S3        29.74R
6HR MIN TEMP:  23; 6HR MAX TEMP:  25;

HETTINGER      FOG       23  21  92 SE3       29.76R VSB 1/4
6HR MIN TEMP:  22; 6HR MAX TEMP:  24;

$$

 *****  OTHER OBSERVATIONS NORTHEAST NORTH DAKOTA  *****

CITY           SKY/WX    TMP DP  RH WIND       PRES   REMARKS
WALHALLA       NOT AVBL
LANGDON        NOT AVBL
CAVALIER       CLOUDY    32  28  86 W5        29.75S
GRAFTON        CLOUDY    30  30 100 W6        29.78S WCI  24
CANDO          NOT AVBL
FORT TOTTEN    NOT AVBL
ROLLA            N/A    N/A N/A N/A MISG        N/A
RUGBY            N/A     25  23  93 W13       29.75F WCI  13
 ***** THE ABOVE OBSERVATIONS ARE NON NWS ARE NOT QUALITY
        CONTROLLED AND MAY MIS-REPORT RAIN FOR SNOW...
$$

 *****  OTHER OBSERVATIONS SOUTHEAST NORTH DAKOTA *****

CITY           SKY/WX    TMP DP  RH WIND       PRES   REMARKS
COOPERSTOWN    CLOUDY    28  27  93 NW9       29.77F WCI  20
VALLEY CITY    CLOUDY    30  30 100 W7        29.80S WCI  23
OAKES          NOT AVBL
GWINNER        CLOUDY    32  30  93 NW9       29.81F WCI  24
SHEYENNE NWR     N/A     33  26  75 NW7       29.95S
BUFFALO        NOT AVBL
WYNDMERE       NOT AVBL
 ***** THE ABOVE OBSERVATIONS ARE NON NWS ARE NOT QUALITY
       CONTROLLED AND MAY MIS-REPORT RAIN FOR SNOW...
$$

  *****  WEATHER ACROSS NORTHERN MINNESOTA  *****

CITY           SKY/WX    TMP DP  RH WIND       PRES   REMARKS
FLAG ISLAND    LGT SNOW  32  30  93 CALM      29.72S
WARROAD        CLOUDY    32  28  86 SW3       29.75R FOG
ROSEAU         MOCLDY    32  27  80 SW5       29.75R
HALLOCK        CLOUDY    32  30  93 SW6       29.75S
THF RVR FALLS  CLOUDY    30  28  92 W8        29.78R WCI  22
6HR MIN TEMP:  30; 6HR MAX TEMP:  31; 6HR PCP: TRACE;

HALSTAD        NOT AVBL
FOSSTON        CLOUDY    28  28 100 SW7       29.78S WCI  21
BAUDETTE       CLOUDY    32  30  92 S6        29.74S
6HR MIN TEMP:  32; 6HR MAX TEMP:  33;

WASKISH        CLOUDY    32  30  93 SW7       29.76S FOG
CROOKSTON      CLOUDY    30  28  93 W8        29.80R WCI  23
$$
  *****  WEATHER ACROSS CENTRAL AND WEST MINNESOTA  *****

CITY           SKY/WX    TMP DP  RH WIND       PRES   REMARKS
BEMIDJI        CLOUDY    31  29  94 SW3       29.77S
PARK RAPIDS    CLOUDY    31  26  82 NW10      29.78R WCI  22
6HR MIN TEMP:  31; 6HR MAX TEMP:  32; 6HR PCP: TRACE;

WADENA         CLOUDY    28  28 100 CALM      29.79S
DETROIT LAKES  MOCLDY    32  30  93 W5        29.80S
MOORHEAD       CLOUDY    34  27  75 W5        29.82S
FERGUS FALLS   CLOUDY    30  30 100 NW6       29.86S WCI  24
ELBOW LAKE     CLOUDY    31  29  92 NW6       29.82S FOG
6HR MIN TEMP:  31; 6HR MAX TEMP:  31;

MORRIS MN      CLOUDY    34  30  86 NW10      29.81F
STAPLES        CLOUDY    28  28 100 W6        29.79S WCI  22
WHEATON        CLOUDY    37  36  93 W6        29.85S
$$
  *****  WEATHER ELSEWHERE ACROSS MINNESOTA  *****

CITY           SKY/WX    TMP DP  RH WIND       PRES   REMARKS
DULUTH         DRIZZLE   34  34 100 NW7       29.74S FOG
6HR MIN TEMP:  34; 6HR MAX TEMP:  35; 6HR PCP: TRACE;

INTRNTL FALLS  FOG       33  32  96 SW5       29.74S VSB 1/2
6HR MIN TEMP:  33; 6HR MAX TEMP:  34;

ELY            FOG       32  32 100 CALM      29.73F VSB 1
CLOQUET        CLOUDY    34  34 100 NW5       29.75S
BRAINERD       FOG       32  32 100 W6        29.78S VSB 3/4
6HR MIN TEMP:  32; 6HR MAX TEMP:  32; 6HR PCP: TRACE;

HIBBING        CLOUDY    32  32 100 CALM      29.74F
6HR MIN TEMP:  32; 6HR MAX TEMP:  33;

ALEXANDRIA     CLOUDY    31  28  89 NW8       29.81R WCI  23
6HR MIN TEMP:  30; 6HR MAX TEMP:  31;

SAINT CLOUD    CLOUDY    32  31  96 W7        29.80S FOG
6HR MIN TEMP:  32; 6HR MAX TEMP:  33;

MINNEAPOLIS    DRIZZLE   33  31  92 W6        29.81S FOG
6HR MIN TEMP:  33; 6HR MAX TEMP:  34; 6HR PCP: TRACE;

$$

  *****  WEATHER ACROSS SOUTH DAKOTA  *****

CITY           SKY/WX    TMP DP  RH WIND       PRES   REMARKS
SIOUX FALLS    FLURRIES  31  29  92 NW7       29.84F WCI  24
6HR MIN TEMP:  31; 6HR MAX TEMP:  32; 6HR PCP: TRACE;

BROOKINGS      CLOUDY    29  27  92 NW6       29.81F WCI  23
WATERTOWN      CLOUDY    29  26  89 NW8       29.80F WCI  21
6HR MIN TEMP:  29; 6HR MAX TEMP:  30;

HURON          CLOUDY    29  26  89 NW7       29.84S WCI  22
6HR MIN TEMP:  29; 6HR MAX TEMP:  31;

SISSETON         N/A     33  29  85 N9        29.81F
ABERDEEN       CLOUDY    30  24  78 N5        29.82F
6HR MIN TEMP:  30; 6HR MAX TEMP:  31;

MITCHELL       CLOUDY    30  26  85 NW6       29.86F WCI  24
PIERRE         CLOUDY    26  22  84 SE6       29.80F WCI  19
6HR MIN TEMP:  26; 6HR MAX TEMP:  28;

MOBRIDGE       CLOUDY    29  23  78 W5        29.77F WCI  24
RAPID CITY     CLOUDY    21  19  92 SE9       29.68F WCI  11
6HR MIN TEMP:  18; 6HR MAX TEMP:  23;

$$

  *****  SOME WEATHER IN NEARBY STATES *****

CITY           SKY/WX    TMP DP  RH WIND       PRES   REMARKS
GLASGOW MT     CLOUDY    27  24  89 S7        29.74S WCI  19
6HR MIN TEMP:  26; 6HR MAX TEMP:  29;

GREAT FALLS MT LGT SNOW  22  20  92 NW5       29.69R FOG     WCI  16
6HR MIN TEMP:  22; 6HR MAX TEMP:  24; 6HR PCP:  0.06;

CHEYENNE WY    CLOUDY    25  14  63 CALM      29.64F
6HR MIN TEMP:  23; 6HR MAX TEMP:  29;

SCOTTSBLUFF NE CLOUDY    28  21  75 E5        29.68F WCI  23
6HR MIN TEMP:  23; 6HR MAX TEMP:  28;

OMAHA NE       CLOUDY    32  26  78 NW7       29.89S
6HR MIN TEMP:  31; 6HR MAX TEMP:  32;

DES MOINES IA  DRIZZLE   33  30  88 NW9       29.86S FOG
6HR MIN TEMP:  32; 6HR MAX TEMP:  35; 6HR PCP: TRACE;

DAVENPORT IA   CLOUDY    35  33  92 NW9       29.78S
6HR MIN TEMP:  35; 6HR MAX TEMP:  36;

CHICAGO IL     CLOUDY    38  35  89 N13       29.73S
6HR MIN TEMP:  37; 6HR MAX TEMP:  39;

EAU CLAIRE WI  FOG       34  34 100 W5        29.77S VSB 1
6HR MIN TEMP:  34; 6HR MAX TEMP:  35;

LA CROSSE WI   CLOUDY    38  34  85 NW6       29.78F
6HR MIN TEMP:  37; 6HR MAX TEMP:  39;

$$

  *****  SOME NATIONAL WEATHER *****

CITY           SKY/WX    TMP DP  RH WIND       PRES   REMARKS
LA GUARDIA NY  CLOUDY    43  34  70 E29G37    29.83F               C1F1C2F2C3F3C4F4C5F5C6F6C7F7C8F8C9F9CaFaCbFbCcFcCdFdCe!



USA.gov is the U.S. government's official web portal to all federal, state and local government web resources and services.